CAPE
0 0 0 0 0 0 0 0 0 0 0 0 0 0 0 0 0 0 0 0 0 0 0 0 0 0 0 0 0 0 1 1 2 2 3 3 5 6
0 0 0 0 0 0 0 0 0 0 0 0 0 0 0 0 0 0 0 0 0 0 0 0 0 0 0 0 0 0 0 0 0 0 1 4 6 6
0 0 0 0 0 0 0 0 0 0 0 0 0 0 0 0 0 0 0 0 0 0 0 0 0 0 0 0 0 0 0 0 0 0 1 4 6 8
0 0 0 0 0 0 0 0 0 0 0 0 0 0 0 0 0 0 0 0 0 0 0 0 0 0 0 0 0 0 0 0 0 0 0 2 6 10
0 0 0 0 0 0 0 0 0 0 0 0 0 0 0 0 0 0 0 0 0 0 0 0 0 0 0 0 0 0 0 2 0 0 1 2 3 6
0 0 0 0 0 0 0 0 0 0 0 0 0 0 0 0 0 0 0 0 0 0 0 0 0 0 0 0 0 0 0 0 0 4 5 8 7 3
0 0 0 0 0 0 0 0 0 0 0 0 0 0 0 0 0 0 0 0 0 0 0 0 0 0 0 0 0 0 0 0 6 8 7 4 3 5
0 0 0 0 0 0 0 0 0 0 0 0 0 0 0 0 0 0 0 0 0 0 0 0 0 0 0 0 1 2 3 4 4 3 3 6 10 6
0 0 1 2 0 0 0 0 0 0 0 0 0 0 0 0 0 0 0 0 0 0 0 0 0 0 0 1 0 0 0 3 6 8 12 6 4 6
1 1 0 0 0 0 0 0 0 0 0 0 0 0 0 0 0 0 0 0 0 0 0 0 0 0 0 0 0 1 3 6 6 3 4 6 8 8
1 4 0 1 4 1 0 0 0 0 0 0 0 0 0 0 0 0 0 0 0 0 0 0 0 0 0 0 0 0 0 1 4 9 10 11 8 10
1 0 0 0 1 0 0 0 0 0 0 0 0 0 0 0 0 0 0 0 0 0 0 0 0 0 0 0 0 0 0 0 7 9 10 12 15 0
2 1 1 1 0 0 0 0 0 0 0 0 0 0 0 0 0 0 0 0 0 0 0 0 0 0 0 2 1 0 0 0 0 0 11 7 4 9
2 0 0 0 0 0 0 0 0 0 0 0 0 0 0 0 0 0 0 0 0 0 0 0 0 0 0 0 1 1 1 1 1 0 0 0 5 4
0 0 0 0 0 0 0 0 0 0 0 0 0 0 0 0 0 0 0 0 0 0 0 0 0 0 0 0 4 2 1 0 0 0 0 0 0 13
0 0 0 0 0 0 0 0 0 0 0 0 0 0 0 0 0 0 0 0 0 0 0 0 0 0 0 2 0 0 0 0 0 0 16 4 0 0
0 0 0 0 0 0 0 0 0 0 0 0 0 0 0 0 0 0 0 0 0 0 0 0 0 0 0 0 0 0 0 3 8 0 0 1 1 1
0 0 0 0 0 0 0 0 0 0 0 0 0 0 0 0 0 0 0 0 0 0 0 0 0 0 0 0 3 1 0 0 0 2 6 11 10 3
0 0 0 0 0 0 0 0 0 0 0 0 0 0 0 0 0 0 0 0 0 0 0 0 0 0 0 0 0 1 0 3 7 4 0 4 10 7
0 0 0 0 0 0 0 0 0 0 0 0 0 0 0 0 0 0 0 0 0 0 0 0 0 0 0 0 1 0 5 0 0 0 0 0 4 10
0 0 0 0 0 0 0 0 0 0 0 0 0 0 0 0 0 0 0 0 0 0 0 0 0 11 0 0 0 0 0 3 5 0 0 1 1 5
0 0 0 0 0 0 0 0 0 0 0 0 0 0 0 0 0 0 0 0 0 0 0 0 0 0 1 0 0 0 0 0 1 8 10 8 1 1
0 0 0 0 0 0 0 0 0 0 0 0 0 0 0 0 0 0 0 0 0 0 0 0 1 0 0 0 0 0 0 0 0 0 0 2 8 13
CIN
-0 -0 -0 -0 -0 -0 -0 -0 -0 -0 -0 -0 -0 -0 -0 -0 -0 -0 -0 -0 -0 -0 -0 -0 -0 -0 -0 -0 -0 -0 -0 -0 -0 -0 -0 -0 -0 -0
-0 -0 -0 -0 -0 -0 -0 -0 -0 -0 -0 -0 -0 -0 -0 -0 -0 -0 -0 -0 -0 -0 -0 -0 -0 -0 -0 -0 -0 -0 -0 -0 -0 -0 -0 -0 -0 -0
-0 -0 -0 -0 -0 -0 -0 -0 -0 -0 -0 -0 -0 -0 -0 -0 -0 -0 -0 -0 -0 -0 -0 -0 -0 -0 -0 -0 -0 -0 -0 -0 -0 -0 -0 -0 -0 -0
-0 -0 -0 -0 -0 -0 -0 -0 -0 -0 -0 -0 -0 -0 -0 -0 -0 -0 -0 -0 -0 -0 -0 -0 -0 -0 -0 -0 -0 -0 -0 -0 -0 -0 -0 -0 -0 -0
-0 -0 -0 -0 -0 -0 -0 -0 -0 -0 -0 -0 -0 -0 -0 -0 -0 -0 -0 -0 -0 -0 -0 -0 -0 -0 -0 -0 -0 -0 -0 -0 -0 -0 -0 -0 -0 -0
-0 -0 -0 -0 -0 -0 -0 -0 -0 -0 -0 -0 -0 -0 -0 -0 -0 -0 -0 -0 -0 -0 -0 -0 -0 -0 -0 -0 -0 -0 -0 -0 -0 -0 -0 -0 -0 -0
-0 -0 -0 -0 -0 -0 -0 -0 -0 -0 -0 -0 -0 -0 -0 -0 -0 -0 -0 -0 -0 -0 -0 -0 -0 -0 -0 -0 -0 -0 -0 -0 -0 -0 -0 -0 -0 -0
-0 -0 -0 -0 -0 -0 -0 -0 -0 -0 -0 -0 -0 -0 -0 -0 -0 -0 -0 -0 -0 -0 -0 -0 -0 -0 -0 -0 -0 -0 -0 -0 -0 -0 -0 -0 -0 -0
-0 -0 -0 -0 -0 -0 -0 -0 -0 -0 -0 -0 -0 -0 -0 -0 -0 -0 -0 -0 -0 -0 -0 -0 -0 -0 -0 -0 -0 -0 -0 -0 -0 -0 -0 -0 -0 -0
-0 -0 -0 -0 -0 -0 -0 -0 -0 -0 -0 -0 -0 -0 -0 -0 -0 -0 -0 -0 -0 -0 -0 -0 -0 -0 -0 -0 -0 -0 -0 -0 -0 -0 -0 -0 -0 -0
-0 -0 -0 -0 -0 -0 -0 -0 -0 -0 -0 -0 -0 -0 -0 -0 -0 -0 -0 -0 -0 -0 -0 -0 -0 -0 -0 -0 -0 -0 -0 -0 -0 -0 -0 -0 -0 -0
-0 -0 -0 -0 -0 -0 -0 -0 -0 -0 -0 -0 -0 -0 -0 -0 -0 -0 -0 -0 -0 -0 -0 -0 -0 -0 -0 -0 -0 -0 -0 -0 -0 -0 -0 -0 -0 -0
-0 -0 -0 -0 -0 -0 -0 -0 -0 -0 -0 -0 -0 -0 -0 -0 -0 -0 -0 -0 -0 -0 -0 -0 -0 -1 -5 -2 -3 -0 -0 -0 -0 -0 -0 -0 -0 -0
-0 -0 -0 -0 -0 -0 -0 -0 -0 -0 -0 -0 -0 -0 -0 -0 -0 -0 -0 -0 -0 -0 -0 -0 -0 -0 -0 -1 -1 -2 -3 -3 -3 -1 -0 -0 -0 -0
-0 -0 -0 -0 -0 -0 -0 -0 -0 -0 -0 -0 -0 -0 -0 -0 -0 -0 -0 -0 -0 -0 -0 -0 -0 -0 -0 -0 -1 -2 -2 -0 -0 -0 -0 -0 -0 -0
-0 -0 -0 -0 -0 -0 -0 -0 -0 -0 -0 -0 -0 -0 -0 -0 -0 -0 -0 -0 -0 -0 -0 -0 -0 -0 -0 -1 -0 -0 -0 -0 -0 -0 -0 -0 -0 -0
-0 -0 -0 -0 -0 -0 -0 -0 -0 -0 -0 -0 -0 -0 -0 -0 -0 -0 -0 -0 -0 -0 -0 -0 -0 -0 -0 -0 -0 -0 -0 -1 -1 -0 -0 -0 -0 -2
-0 -0 -0 -0 -0 -0 -0 -0 -0 -0 -0 -0 -0 -0 -0 -0 -0 -0 -0 -0 -0 -0 -0 -0 -0 -0 -0 -0 -0 -0 -0 -0 -2 -1 -0 -0 -0 -0
-0 -0 -0 -0 -0 -0 -0 -0 -0 -0 -0 -0 -0 -0 -0 -0 -0 -0 -0 -0 -0 -0 -0 -0 -0 -0 -0 -0 -0 -0 -3 -0 -0 -2 -1 -1 -0 -0
-0 -0 -0 -0 -0 -0 -0 -0 -0 -0 -0 -0 -0 -0 -0 -0 -0 -0 -0 -0 -0 -0 -0 -0 -0 -0 -0 -2 -1 -0 -0 -0 -1 -1 -2 -0 -0 -0
-0 -0 -0 -0 -0 -0 -0 -0 -0 -0 -0 -0 -0 -0 -0 -0 -0 -0 -0 -0 -0 -0 -0 -0 -1 -1 -0 -0 -0 -0 -0 -0 -1 -3 -1 -1 -1 -0
-0 -0 -0 -0 -0 -0 -0 -0 -0 -0 -0 -0 -0 -0 -0 -0 -0 -0 -0 -0 -0 -0 -0 -2 -0 -1 -1 -1 -0 -0 -0 -0 -0 -0 -0 -0 -0 -2
-0 -0 -0 -0 -0 -0 -0 -0 -0 -0 -0 -0 -0 -0 -0 -0 -0 -0 -0 -0 -0 -0 -0 -0 -0 -0 -0 -2 -0 -0 -0 -0 -0 -0 -0 -0 -0 -0
Wind_Speed
5 6 5 4 4 4 4 3 4 4 2 2 3 2 4 5 6 5 4 1 5 6 3 3 3 9 13 13 14 15 16 19 17 17 17 17 17 18
4 6 5 3 4 4 4 3 4 3 3 2 2 2 2 3 7 5 4 3 5 4 5 4 4 9 12 13 14 16 17 18 17 17 16 16 16 18
5 5 5 5 4 3 4 3 3 2 3 0 2 1 1 2 1 2 2 1 2 6 8 6 11 12 13 13 14 15 19 19 19 19 15 15 18 20
7 7 7 6 6 4 3 5 3 3 2 3 1 1 1 1 2 3 2 5 3 9 14 15 16 15 13 12 15 17 19 16 18 14 17 19 19 20
9 8 6 7 6 2 4 4 3 2 2 2 1 0 2 4 3 4 5 5 6 14 15 17 17 15 17 18 19 18 18 18 17 20 17 18 21 23
6 6 6 8 7 4 6 4 4 3 3 3 3 2 2 3 3 3 3 4 6 8 11 11 15 17 19 19 16 19 20 20 22 19 21 22 23 24
8 8 6 11 10 7 5 5 5 3 3 3 2 3 2 3 3 3 3 4 5 2 4 7 7 7 7 10 13 15 21 22 20 22 25 25 24 22
9 8 7 11 8 12 13 11 6 3 2 2 1 0 1 2 3 3 3 4 4 2 7 9 6 6 6 6 14 20 22 24 26 27 26 23 22 24
8 7 6 5 7 6 8 7 5 6 5 4 2 1 2 2 1 3 3 3 5 6 7 8 5 6 6 7 16 23 26 26 24 22 22 25 27 26
8 8 7 8 6 6 5 4 3 0 4 4 4 4 3 4 3 3 3 4 4 4 4 7 5 7 3 8 22 23 18 17 23 28 27 27 26 27
7 6 8 8 12 10 5 4 2 2 5 3 4 4 6 10 9 0 2 5 6 4 2 5 3 10 8 9 7 11 18 27 25 27 27 27 27 28
6 5 13 10 13 10 4 3 1 1 2 4 4 5 6 6 11 4 4 6 5 2 0 5 8 6 6 2 1 10 5 19 24 26 27 27 27 12
6 6 6 16 14 10 7 3 2 3 0 1 3 2 3 3 3 1 2 2 5 7 7 5 6 6 6 13 8 9 9 10 11 13 21 25 28 22
7 7 8 16 13 11 6 6 6 2 1 1 2 3 2 2 3 1 2 3 5 8 5 4 5 7 10 12 14 10 9 9 10 12 12 18 23 26
7 13 19 17 14 8 10 9 5 2 2 2 3 3 3 3 2 2 4 4 4 4 5 3 5 10 9 10 13 11 15 12 12 9 10 12 12 8
11 10 9 7 6 4 4 6 4 4 4 4 4 2 0 1 2 2 0 2 1 4 6 8 7 7 8 8 11 14 11 11 11 12 10 10 12 11
7 4 2 2 3 3 2 3 3 4 5 4 2 2 2 0 1 1 1 2 3 6 7 5 5 5 6 11 12 12 13 11 9 12 15 14 12 12
4 4 3 3 3 3 3 4 4 4 3 3 1 1 0 1 1 2 2 2 5 6 7 5 2 8 9 9 16 11 11 12 12 14 15 14 14 12
3 2 3 3 3 4 4 3 2 3 3 3 2 1 2 2 1 2 2 3 5 8 8 6 7 8 11 13 8 18 14 12 13 11 13 13 15 15
2 3 3 3 3 4 3 3 3 2 2 2 2 2 2 1 2 5 5 4 6 8 9 8 7 7 10 13 16 14 22 13 12 14 15 14 15 30
2 2 2 2 3 3 3 3 4 3 3 2 1 0 1 1 3 4 4 6 7 8 10 9 9 14 10 11 11 13 10 21 22 17 16 15 16 16
3 5 4 3 3 4 3 3 2 1 1 1 1 1 3 2 2 3 3 4 7 9 10 9 10 9 9 11 14 17 14 14 19 28 29 28 15 16
4 4 3 3 3 3 3 3 3 1 1 2 2 2 1 1 2 3 3 6 9 9 10 11 9 9 11 11 14 14 20 18 14 16 14 24 30 33
Wind_Direction
83 100 93 80 83 81 86 105 134 142 154 258 123 163 135 128 163 140 137 217 315 313 186 194 300 343 358 352 341 337 337 335 338 340 339 339 338 338
103 106 107 97 88 84 87 90 84 119 132 149 20 146 155 140 150 141 160 56 329 8 184 225 269 347 350 342 334 331 328 330 331 332 331 332 337 337
113 116 120 125 111 107 96 70 78 103 135 246 115 108 116 122 108 123 127 114 35 3 5 10 7 0 345 337 330 328 326 325 325 324 333 332 326 326
134 146 142 130 116 131 136 103 102 77 122 152 241 4 49 13 74 78 34 57 34 17 15 6 350 341 336 359 340 333 321 321 320 334 320 323 324 323
153 151 148 156 111 122 102 110 131 146 114 141 189 129 60 47 44 41 31 22 19 1 354 346 336 353 350 343 331 324 326 318 328 319 319 320 318 316
134 130 139 110 100 153 123 104 66 76 70 84 81 64 42 36 69 42 13 29 354 341 338 349 351 346 335 327 326 322 312 323 313 315 313 313 311 308
114 115 123 109 112 98 108 96 92 78 59 57 51 37 27 12 32 14 21 348 334 318 22 339 334 324 317 311 319 308 314 308 309 312 309 308 304 306
116 106 104 102 111 95 93 86 84 112 108 107 103 100 330 4 22 34 354 9 339 349 341 305 316 308 309 303 308 310 309 311 309 307 302 301 309 311
120 127 130 134 116 107 108 112 120 126 125 132 145 199 280 20 76 330 319 301 277 296 298 294 319 303 310 311 320 304 299 301 299 307 313 310 301 302
145 148 151 143 143 120 113 88 71 99 184 180 186 201 223 254 202 214 235 260 273 269 282 285 314 303 312 295 286 293 298 316 322 307 303 300 300 304
144 154 157 148 153 155 126 121 30 358 34 54 181 250 291 301 299 170 275 280 287 291 240 298 322 307 294 280 264 302 319 311 306 303 300 302 304 301
130 146 148 143 148 155 139 133 134 124 26 4 351 339 323 292 295 263 260 272 294 337 189 317 306 325 314 230 264 310 283 298 299 303 302 300 300 302
159 158 150 160 161 157 149 156 160 163 338 310 302 301 289 278 263 278 134 161 286 276 288 291 299 297 265 296 295 300 291 295 294 291 292 297 296 293
170 165 163 171 165 161 161 199 205 170 182 281 287 272 248 290 281 272 301 270 246 255 279 274 280 291 292 290 297 301 297 292 294 293 289 287 290 294
170 166 169 170 168 180 200 208 185 165 212 211 242 235 210 233 260 304 278 274 269 290 302 261 279 290 281 286 297 301 308 301 287 283 290 284 284 292
130 139 147 155 164 187 217 219 185 197 210 234 233 249 223 233 266 230 37 305 314 295 277 277 269 275 292 294 299 297 294 287 296 289 294 308 293 286
124 108 107 120 194 204 206 201 206 226 228 247 177 201 232 200 279 12 316 290 276 297 294 279 271 274 281 290 288 285 290 288 302 305 300 293 288 283
125 139 178 194 188 206 225 238 224 206 164 157 155 174 120 270 262 280 259 257 281 286 292 293 288 302 296 275 274 292 297 298 297 291 290 289 293 287
125 145 178 192 212 204 198 187 178 153 159 135 136 194 235 250 288 291 259 267 283 295 296 306 301 297 301 297 291 294 297 295 293 294 294 285 289 290
122 166 211 211 201 203 174 152 168 151 124 166 190 232 266 249 294 292 288 266 285 301 301 298 294 295 292 298 304 297 293 298 298 293 294 289 280 282
191 220 207 213 183 150 160 163 156 166 187 186 264 275 281 243 263 265 268 290 299 299 296 295 294 296 295 293 293 292 288 292 296 295 296 291 295 296
204 218 213 169 165 156 158 153 141 101 116 144 218 234 252 228 249 261 267 283 296 293 291 298 305 299 299 295 290 294 299 298 293 289 291 292 292 291
197 177 155 145 141 129 116 116 118 151 179 218 233 260 256 296 280 268 262 288 297 296 301 298 299 303 289 288 295 296 294 299 304 306 293 292 294 292